User: anonymous   Login
Location: Unspecified
(0.0000°N, 0.0000°E)
Time: 10:25:00
(UTC+00:00)
Language:

Sapphire - Orbit

View from above orbital plane
View from above orbital plane
View from above satellite
View from above satellite

Ground track
Ground track

The orbit data is extracted from the following two-line orbital elements,

1 26932U 01043D   21168.87877797 -.00000031  00000-0  20057-4 0  9991
2 26932  67.0566 283.8899 0007687 251.1386 108.8882 14.30360831 29279
Epoch (UTC): 17 June 2021 21:05:26
Eccentricity: 0.0007687
inclination: 67.0566°
perigee height: 785 km
apogee height: 796 km
right ascension of ascending node: 283.8899°
argument of perigee: 251.1386°
revolutions per day: 14.30360831
mean anomaly at epoch: 108.8882°
orbit number at epoch: 2927

The dashed part of the orbit path shows where the satellite is in the earth's shadow,  

DLR